Home > Weather > Lloydminster > Past weeks

Flag for Canada Past Weather in Lloydminster, Alberta, Canada — Yesterday and Last 2 Weeks

Now
50 °F

Overcast.


Feels Like: 47 °F
Forecast: 47 / 62 °F
Wind: 8 mph from North

Location: Lloydminister

Current Time: May 31, 2016 at 4:22:19 AM

Latest Report: May 31, 2016 at 4:00 AM


Visibility: 9 mi

Pressure: 30.17 "Hg (27.90 "Hg at 648m altitude)

Humidity: 94%

Dew Point: 48 °F

Location of LloydminsterLocation

Past Weather in Lloydminster — Graph

°F

Lloydminster Temperature Yesterday

Maximum temperature yesterday: 59 °F (at 5:00 PM)
Minimum temperature yesterday: 48 °F (at 1:00 AM)
Average temperature yesterday: 52 °F

High & Low Weather Summary for the Past Weeks

 TemperatureHumidityPressure
High77 °F (May 18, 3:00 PM)100% (May 22, 12:00 AM)30.17 "Hg (May 22, 12:00 AM)
Low39 °F (May 25, 5:00 AM)17% (May 16, 5:00 PM)29.40 "Hg (May 22, 8:00 AM)
Average57 °F69%29.85 "Hg
* Reported May 16 3:00 AM — May 31 3:00 AM, Lloydminster, Weather by CustomWeather, © 2016

Note: Actual official high and low records may vary slightly from our data, if they occured in-between our weather recording intervals... More about our weather records

Advertising

Lloydminster Weather History for the Previous 24 Hours

Scroll right to see more
 ConditionsComfort  
Time TempWeatherWind HumidityBarometerVisibility
3:00 AM
Tue, May 31
50 °FLow clouds.12 mph94%30.16 "Hg9 mi
2:00 AM50 °FOvercast.10 mph94%30.16 "Hg9 mi
1:00 AM50 °FLow clouds.10 mph94%30.16 "Hg9 mi
12:00 AM50 °FOvercast.12 mph94%30.16 "Hg9 mi
11:00 PM
Mon, May 30
50 °FMostly cloudy.9 mph94%30.17 "Hg9 mi
10:00 PM52 °FMostly cloudy.14 mph88%30.16 "Hg15 mi
9:00 PM54 °FMostly cloudy.10 mph82%30.14 "Hg15 mi
8:00 PM54 °FPartly sunny.12 mph82%30.13 "Hg15 mi
7:00 PM55 °FPartly sunny.14 mph77%30.11 "Hg15 mi
6:00 PM59 °FPartly sunny.15 mph68%30.09 "Hg15 mi
5:00 PM59 °FMore clouds than sun.12 mph68%30.08 "Hg15 mi
4:00 PM57 °FMore clouds than sun.7 mph67%30.07 "Hg15 mi
3:00 PM57 °FOvercast.9 mph72%30.07 "Hg15 mi
2:00 PM57 °FMostly cloudy.9 mph72%30.07 "Hg15 mi
1:00 PM57 °FMore clouds than sun.9 mph82%30.06 "Hg15 mi
12:00 PM55 °FMostly cloudy.12 mph77%30.05 "Hg15 mi
11:00 AM54 °FMostly cloudy.9 mph82%30.04 "Hg15 mi
10:00 AM54 °FMostly cloudy.7 mph88%30.03 "Hg15 mi
9:00 AM52 °FMostly cloudy.7 mph94%30.01 "Hg15 mi
8:00 AM50 °FMore clouds than sun.5 mph94%30.00 "Hg15 mi
7:00 AM50 °FLow clouds.6 mph94%29.99 "Hg15 mi
6:00 AM50 °FPartly sunny.3 mph94%29.98 "Hg9 mi
5:59 AM50 °FPartly sunny.3 mph94%29.98 "Hg9 mi
5:00 AM48 °FLow clouds.7 mph100%29.96 "Hg9 mi
4:00 AM48 °FLight rain. Mostly cloudy.10 mph100%29.94 "Hg9 mi
Weather by CustomWeather, © 2016

See weather overviewHow to use our weather pages